Weather History for Rockingham, NC

Change the Weather History Date:

Tuesday, March 19, 2013

  Actual Average (KHFF) Record (KHFF)
Temperature  
Mean Temperature 56 °F -  
Max Temperature 69 °F 62 °F 78 °F (2012)
Min Temperature 43 °F 41 °F 26 °F (2007)
Degree Days  
Heating Degree Days 9    
Growing Degree Days 6 (Base 50)    
Moisture  
Dew Point 35 °F    
Average Humidity 61    
Maximum Humidity 100    
Minimum Humidity 16    
Precipitation  
Precipitation 0.00 in - - ()
Sea Level Pressure  
Sea Level Pressure 29.91 in    
Wind  
Wind Speed 7 mph (NW)    
Max Wind Speed 17 mph    
Max Gust Speed 22 mph    
Visibility 7 miles    
Events Fog    
Averages and records for this station are not official NWS values.
T = Trace of Precipitation, MM = Missing Value Source: NWS Daily Summary

Daily Weather History Graph

Daily Weather History Graph

Search for Another Location

Airport:

Trip Planner

Search our weather history database for the weather conditions in past years. The results will help you decide how hot, cold, wet, or windy it might be!

Date:

Astronomy

Mar. 19, 2013 Rise Set
Actual Time 7:23 AM EDT 7:30 PM EDT
Civil Twilight 6:58 AM EDT 7:55 PM EDT
Nautical Twilight 6:29 AM EDT 8:24 PM EDT
Astronomical Twilight 5:59 AM EDT 8:54 PM EDT
Moon 12:25 PM EDT (3/19) 2:02 AM EDT (3/19)
Length of Visible Light 12h 56m
Length of Day
12h 06m
Waxing Crescent, 49% of the Moon is Illuminated
Mar 19
Waxing Crescent
Mar 19
First Quarter
Mar 27
Full
Apr 3
Last Quarter
Apr 10
New

Hourly Weather History & Observations

Time (EDT) Temp. Windchill Dew Point Humidity Pressure Visibility Wind Dir Wind Speed Gust Speed Precip Events Conditions
12:15 AM 43.3 °F 39.2 °F 42.8 °F 98% 29.86 in 10.0 mi ESE 6.9 mph - N/A   Scattered Clouds
12:35 AM 43.7 °F 39.7 °F 43.0 °F 97% 29.84 in 10.0 mi ESE 6.9 mph - N/A   Clear
1:15 AM 43.7 °F 39.7 °F 43.0 °F 97% 29.84 in 10.0 mi ESE 6.9 mph - N/A   Clear
1:35 AM 43.7 °F 42.1 °F 43.3 °F 99% 29.85 in 10.0 mi NNW 3.5 mph - N/A   Clear
1:55 AM 43.7 °F 42.1 °F 43.5 °F 99% 29.85 in 10.0 mi NNW 3.5 mph - N/A   Clear
2:15 AM 43.9 °F 41.3 °F 43.7 °F 99% 29.86 in 10.0 mi NW 4.6 mph - N/A   Mostly Cloudy
2:35 AM 43.7 °F 41.1 °F 43.7 °F 100% 29.85 in 4.0 mi NW 4.6 mph - N/A   Overcast
2:55 AM 43.7 °F 40.3 °F 43.7 °F 100% 29.85 in 1.0 mi NW 5.8 mph - N/A   Overcast
3:15 AM 43.3 °F 39.9 °F 43.3 °F 100% 29.85 in 0.5 mi NNW 5.8 mph - N/A Fog Fog
3:35 AM 43.5 °F 39.4 °F 43.5 °F 100% 29.85 in 0.5 mi WNW 6.9 mph - N/A Fog Fog
3:55 AM 43.7 °F 39.7 °F 43.7 °F 100% 29.84 in 0.8 mi NW 6.9 mph - N/A   Overcast
4:15 AM 43.7 °F 41.1 °F 43.7 °F 100% 29.84 in 0.8 mi NW 4.6 mph - N/A   Overcast
4:35 AM 43.9 °F 41.3 °F 43.9 °F 100% 29.85 in 1.0 mi WNW 4.6 mph - N/A   Overcast
4:55 AM 43.9 °F 40.5 °F 43.9 °F 100% 29.84 in 0.8 mi WNW 5.8 mph - N/A   Overcast
5:15 AM 43.9 °F 40.5 °F 43.9 °F 100% 29.85 in 1.5 mi WNW 5.8 mph - N/A   Overcast
5:35 AM 43.9 °F 40.5 °F 43.9 °F 100% 29.85 in 1.2 mi WNW 5.8 mph - N/A   Overcast
5:55 AM 43.9 °F 39.3 °F 43.9 °F 100% 29.85 in 1.2 mi NW 8.1 mph - N/A   Overcast
6:15 AM 43.7 °F 40.3 °F 43.7 °F 100% 29.85 in 1.8 mi NW 5.8 mph - N/A   Overcast
6:35 AM 43.7 °F 39.7 °F 43.7 °F 100% 29.86 in 2.0 mi NW 6.9 mph - N/A   Overcast
6:55 AM 43.7 °F 40.3 °F 43.7 °F 100% 29.87 in 1.2 mi NW 5.8 mph - N/A   Overcast
7:15 AM 43.7 °F 41.1 °F 43.7 °F 100% 29.88 in 1.2 mi West 4.6 mph - N/A   Overcast
7:55 AM 43.7 °F 41.1 °F 43.7 °F 100% 29.89 in 0.8 mi WSW 4.6 mph - N/A   Overcast
8:15 AM 43.9 °F 39.3 °F 43.9 °F 100% 29.89 in 0.8 mi WSW 8.1 mph - N/A   Overcast
8:35 AM 43.9 °F 41.3 °F 43.9 °F 100% 29.89 in 0.8 mi West 4.6 mph - N/A   Overcast
8:55 AM 44.6 °F 40.2 °F 44.6 °F 100% 29.90 in 1.2 mi West 8.1 mph - N/A   Overcast
9:15 AM 45.1 °F 42.0 °F 45.1 °F 100% 29.91 in 1.8 mi West 5.8 mph - N/A   Overcast
9:35 AM 45.9 °F 42.9 °F 45.9 °F 100% 29.92 in 2.5 mi WNW 5.8 mph - N/A   Overcast
9:55 AM 46.4 °F 42.4 °F 46.4 °F 100% 29.92 in 3.0 mi WNW 8.1 mph - N/A   Overcast
10:15 AM 46.9 °F - 46.9 °F 100% 29.93 in 4.0 mi WNW 6.9 mph - N/A   Overcast
10:35 AM 48.9 °F - 47.7 °F 95% 29.93 in 7.0 mi NW 10.4 mph - N/A   Overcast
10:55 AM 50.4 °F - 47.5 °F 90% 29.93 in 7.0 mi NNW 6.9 mph - N/A   Scattered Clouds
11:15 AM 52.7 °F - 46.9 °F 81% 29.94 in 10.0 mi NW 9.2 mph - N/A   Clear
11:35 AM 55.0 °F - 45.5 °F 70% 29.94 in 10.0 mi NW 13.8 mph 18.4 mph N/A   Clear
11:55 AM 57.2 °F - 44.2 °F 62% 29.93 in 10.0 mi WNW 12.7 mph 19.6 mph N/A   Clear
12:15 PM 59.4 °F - 41.5 °F 52% 29.94 in 10.0 mi NW 13.8 mph 21.9 mph N/A   Clear
12:35 PM 60.4 °F - 39.9 °F 47% 29.92 in 10.0 mi WNW 11.5 mph - N/A   Clear
12:55 PM 62.2 °F - 37.9 °F 41% 29.92 in 10.0 mi West 10.4 mph - N/A   Clear
1:15 PM 64.2 °F - 35.1 °F 34% 29.91 in 10.0 mi WNW 13.8 mph 20.7 mph N/A   Clear
1:35 PM 64.4 °F - 34.7 °F 33% 29.90 in 10.0 mi WNW 12.7 mph 17.3 mph N/A   Clear
1:55 PM 64.9 °F - 34.9 °F 33% 29.91 in 10.0 mi WNW 13.8 mph 19.6 mph N/A   Clear
2:15 PM 66.0 °F - 33.4 °F 30% 29.91 in 10.0 mi West 13.8 mph 19.6 mph N/A   Clear
2:35 PM 67.1 °F - 33.1 °F 28% 29.90 in 10.0 mi WNW 15.0 mph 20.7 mph N/A   Clear
2:55 PM 67.1 °F - 32.2 °F 27% 29.90 in 10.0 mi West 13.8 mph 19.6 mph N/A   Clear
3:15 PM 67.6 °F - 32.2 °F 27% 29.89 in 10.0 mi West 10.4 mph 17.3 mph N/A   Clear
3:35 PM 67.6 °F - 29.1 °F 24% 29.89 in 10.0 mi WNW 11.5 mph 20.7 mph N/A   Clear
3:55 PM 68.0 °F - 27.1 °F 22% 29.88 in 10.0 mi West 10.4 mph 20.7 mph N/A   Clear
4:15 PM 68.9 °F - 27.7 °F 21% 29.89 in 10.0 mi WNW 8.1 mph 18.4 mph N/A   Clear
4:35 PM 69.1 °F - 26.1 °F 20% 29.90 in 10.0 mi WNW 12.7 mph 17.3 mph N/A   Clear
4:55 PM 69.8 °F - 22.6 °F 17% 29.90 in 10.0 mi NW 17.3 mph 21.9 mph N/A   Clear
5:15 PM 69.1 °F - 20.3 °F 16% 29.90 in 10.0 mi NW 15.0 mph 21.9 mph N/A   Clear
5:35 PM 68.7 °F - 20.8 °F 16% 29.91 in 10.0 mi WNW 12.7 mph 18.4 mph N/A   Clear
5:55 PM 67.5 °F - 20.1 °F 16% 29.92 in 10.0 mi NW 10.4 mph 21.9 mph N/A   Clear
6:15 PM 67.1 °F - 20.8 °F 17% 29.92 in 10.0 mi NW 10.4 mph 18.4 mph N/A   Clear
6:35 PM 66.4 °F - 22.5 °F 19% 29.92 in 10.0 mi NW 10.4 mph 16.1 mph N/A   Clear
6:55 PM 65.5 °F - 22.6 °F 20% 29.93 in 10.0 mi NW 6.9 mph - N/A   Clear
7:15 PM 64.0 °F - 20.8 °F 19% 29.93 in 10.0 mi NNW 6.9 mph - N/A   Clear
7:35 PM 62.4 °F - 21.6 °F 21% 29.94 in 10.0 mi NW 5.8 mph - N/A   Clear
7:55 PM 61.0 °F - 23.0 °F 23% 29.95 in 10.0 mi NW 4.6 mph - N/A   Clear
8:15 PM 59.9 °F - 23.7 °F 25% 29.95 in 10.0 mi NNW 5.8 mph - N/A   Clear
8:35 PM 59.2 °F - 23.7 °F 26% 29.97 in 10.0 mi NW 4.6 mph - N/A   Clear
8:55 PM 58.3 °F - 23.7 °F 26% 29.97 in 10.0 mi NW 5.8 mph - N/A   Clear
9:15 PM 57.2 °F - 23.9 °F 28% 29.98 in 10.0 mi WNW 4.6 mph - N/A   Clear
9:35 PM 56.3 °F - 24.1 °F 29% 29.99 in 10.0 mi WNW 4.6 mph - N/A   Clear
9:55 PM 56.1 °F - 23.5 °F 28% 30.00 in 10.0 mi NW 6.9 mph - N/A   Clear
10:15 PM 56.3 °F - 23.0 °F 28% 30.00 in 10.0 mi NW 6.9 mph - N/A   Clear
10:35 PM 55.2 °F - 23.4 °F 29% 30.01 in 10.0 mi NNW 3.5 mph - N/A   Clear
10:55 PM 54.5 °F - 23.5 °F 30% 30.01 in 10.0 mi NW 5.8 mph - N/A   Clear
11:15 PM 53.6 °F - 23.5 °F 31% 30.02 in 10.0 mi NNW 5.8 mph - N/A   Clear
11:35 PM 52.2 °F - 23.9 °F 33% 30.03 in 10.0 mi NW 3.5 mph - N/A   Clear
11:55 PM 52.0 °F - 23.7 °F 33% 30.02 in 10.0 mi NNW 3.5 mph - N/A   Clear